Location: Newark
(58.8333°N, 23.5833°E)
Time: 07:21:48
(UTC+00:00)

A-11 Canister half - Pass Details

Date: 18 November 2019
Orbit: 1515 x 1685 km, 47.2° (Epoch: 13 December)

Event Time Altitude Azimuth Distance (km) Brightness Sun altitude
Rises 20:32:40 0° 266° (W) 4,939 12.0 -46.6°
Reaches altitude 10° 20:36:05 10° 260° (W) 3,952 11.3 -46.9°
Enters shadow 20:38:36 19° 252° (WSW) 3,291 10.7 -47.1°
Maximum altitude 20:45:11 39° 196° (SSW) 2,328 - -47.5°
Drops below altitude 10° 20:54:09 10° 132° (SE) 3,895 - -48.1°
Sets 20:57:30 0° 126° (SE) 4,860 - -48.3°
